Regional Weather Roundup
Issued by NWS

Home | Current Version | Previous Version | Text Only | Print | Product List | Glossary On
Versions: 1 2 3 4 5 6 7 8 9 10 11 12 13 14 15 16 17 18 19 20 21 22 23 24 25 26 27 28
000
ASUS45 KREV 290310
RWRNV
NEVADA REGIONAL WEATHER ROUNDUP
NATIONAL WEATHER SERVICE RENO NV
800 PM PDT THU APR 28 2016

NOTE: "FAIR" INDICATES FEW OR NO CLOUDS BELOW 12,000 FEET WITH NO
SIGNIFICANT WEATHER AND/OR OBSTRUCTIONS TO VISIBILITY.

NVZ001-003-004-290400-
WESTERN NEVADA

CITY           SKY/WX    TMP DP  RH WIND       PRES   REMARKS
RENO           PTCLDY    57  30  35 NW10      29.96R
CARSON CITY    FAIR      54  28  37 NW7       29.96R
MINDEN         MOCLDY    52  32  46 NW6       29.97R
SLIDE MTN        N/A     30  25  80 NW8         N/A
PYRAMID LAKE     N/A     59 N/A N/A W2          N/A
FALLON         MOCLDY    53  34  48 N3        29.92R
LOVELOCK       CLOUDY    58  30  34 NW5       29.91R
$$

NVZ002-CAZ072-073-290400-
NORTHERN AND CENTRAL SIERRA

CITY           SKY/WX    TMP DP  RH WIND       PRES   REMARKS
S. LAKE TAHOE  CLOUDY    43  34  70 CALM      30.01R
TRUCKEE        MOCLDY    45  30  57 N8        30.01R
SQUAW VLY 8000   N/A     36  28  75 N5          N/A
BLUE CANYON    MOCLDY    50  35  56 VRB3      30.00R
MAMMOTH LAKES  FAIR      41  28  60 NW6       30.01S
BRIDGEPORT     CLOUDY    42  28  57 VRB3      29.99R
$$

NVZ030-031-036-290400-
NORTHERN NEVADA

CITY           SKY/WX    TMP DP  RH WIND       PRES   REMARKS
ELKO           CLOUDY    49  37  63 NW9       29.89R
WINNEMUCCA     CLEAR     47  34  60 NW6       29.92R
WENDOVER       CLOUDY    52  41  66 CALM      29.83R
$$

NVZ035-037-290400-
CENTRAL NEVADA

CITY           SKY/WX    TMP DP  RH WIND       PRES   REMARKS
ELY            CLOUDY    41  35  79 N10       29.87R
EUREKA           N/A     43  37  79 VRB3      29.91R
$$

NVZ013-014-290400-
SOUTH CENTRAL NEVADA

CITY           SKY/WX    TMP DP  RH WIND       PRES   REMARKS
TONOPAH        CLOUDY    49  33  54 N13       29.92R
$$

NVZ017-020-022-290400-
SOUTHERN NEVADA

CITY           SKY/WX    TMP DP  RH WIND       PRES   REMARKS
LAS VEGAS      CLOUDY    57  49  74 NW3       29.74R
N. LAS VEGAS   CLOUDY    58  50  75 N6        29.79R
NELLIS AFB     NOT AVBL
HENDERSON      CLOUDY    57  50  77 NW3       29.79R
MERCURY        MOCLDY    58  41  53 NE7       29.79R
$$




USA.gov is the U.S. government's official web portal to all federal, state and local government web resources and services.